Find Starlink 31487

NORAD ID: 59297 Int'l Des: 2024-056 Owner: SPXS Country: US Constellation: starlink operational
LEOCIRCULAR

当前视图

正在加载3D地球...

About Starlink 31487

Starlink 31487 (NORAD 59297) is a starlink constellation satellite (v2 mini) launched Mar 24, 2024 by SPXS of US. It operates in LEO, CIRCULAR orbit with a mass of 730.00 kg.

即将过境

Passes for default location (London). Set your location on the main map for personalized predictions.

高度历史

Loading altitude history...

两行轨道根数

1 59297U 24056B 26265.18763763 .00000854 00000-0 40559-4 0 9995
2 59297 42.9984 201.2053 0001252 261.2389 98.8321 15.27579551141323
Epoch: Sep 22, 2026 • Age: 23 hours

当前状态

高度 493.3 km
远地点 / 近地点 N/A
速度 7.62 km/s
星下点 -37.59°S, 16°E
发射日期 Mar 24, 2024
运行时间 2.4 years
类型 internet

技术详情

分类 Payload
质量 730.00 kg
干质量 700.00 kg
长度 0.30 m
跨度 29.00 m
形状 ? Box + pan
制造商 SPXS
平台类型 Starlink V2M
阶段状态 In Orbit
所有者/国家 SPXS/US

Most Searched